Flint, MI

9:46 PM EST on November 22, 2017 (GMT -0500)
Bishop International

Weather History for KFNT - May, 2013

Change the Weather History Date:

Tuesday, May 21, 2013

  Actual Average Record
Temperature  
Mean Temperature 73 °F 58 °F  
Max Temperature 83 °F 70 °F 93 °F (1921)
Min Temperature 63 °F 47 °F 31 °F (1954)
Degree Days  
Heating Degree Days 0 8  
Month to date heating degree days 98 218  
Since 1 July heating degree days 6352 6825  
Cooling Degree Days 8 1  
Month to date cooling degree days 42 13  
Year to date cooling degree days 42 17  
Growing Degree Days 23 (Base 50)    
Moisture  
Dew Point 61 °F    
Average Humidity 67    
Maximum Humidity 87    
Minimum Humidity 46    
Precipitation  
Precipitation 0.00 in 0.11 in 1.37 in (2014)
Month to date precipitation 0.69 2.08  
Year to date precipitation 13.36 9.99  
Snow  
Snow 0.00 in 0.00 in T in ()
Month to date snowfall 0.0 0.0  
Since 1 July snowfall 43.8 47.4  
Snow Depth 0.00 in    
Sea Level Pressure  
Sea Level Pressure 29.76 in    
Wind  
Wind Speed 8 mph (SSW)    
Max Wind Speed 21 mph    
Max Gust Speed 29 mph    
Visibility 9 miles    
Events      
T = Trace of Precipitation, MM = Missing Value Source: NWS Daily Summary

Daily Weather History Graph

Daily Weather History Graph

Search for Another Location

Airport or City:

Trip Planner

Search our weather history database for the weather conditions in past years. The results will help you decide how hot, cold, wet, or windy it might be!

Date:

Astronomy

May. 21, 2013 Rise Set
Actual Time 6:05 AM EDT 8:57 PM EDT
Civil Twilight 5:32 AM EDT 9:31 PM EDT
Nautical Twilight 4:50 AM EDT 10:13 PM EDT
Astronomical Twilight 4:01 AM EDT 11:02 PM EDT
Moon 5:05 PM EDT (5/21) 3:39 AM EDT (5/21)
Length of Visible Light 15h 58m
Length of Day
14h 51m
Waxing Gibbous, 84% of the Moon is Illuminated
May 21
Waxing Gibbous
May 25
Full
May 31
Last Quarter
Jun 8
New
Jun 16
First Quarter

Hourly Weather History & Observations

Time (EDT) Temp. Heat Index Dew Point Humidity Pressure Visibility Wind Dir Wind Speed Gust Speed Precip Events Conditions
12:53 AM 68.0 °F - 63.0 °F 84% 29.81 in 8.0 mi South 4.6 mph - N/A   Clear
1:53 AM 68.0 °F - 63.0 °F 84% 29.79 in 7.0 mi South 5.8 mph - N/A   Clear
2:53 AM 71.1 °F - 64.0 °F 78% 29.78 in 7.0 mi South 6.9 mph - N/A   Clear
3:53 AM 72.0 °F - 64.0 °F 76% 29.77 in 7.0 mi South 6.9 mph - N/A   Clear
4:53 AM 72.0 °F - 64.0 °F 76% 29.76 in 7.0 mi South 6.9 mph - N/A   Mostly Cloudy
5:53 AM 73.0 °F - 64.0 °F 73% 29.78 in 8.0 mi SSW 9.2 mph 16.1 mph N/A   Mostly Cloudy
6:53 AM 70.0 °F - 61.0 °F 73% 29.79 in 10.0 mi West 5.8 mph - N/A   Scattered Clouds
7:53 AM 71.1 °F - 62.1 °F 73% 29.75 in 10.0 mi SE 5.8 mph - N/A   Partly Cloudy
8:53 AM 73.0 °F - 64.0 °F 73% 29.77 in 9.0 mi South 4.6 mph - N/A   Clear
9:53 AM 77.0 °F - 63.0 °F 62% 29.78 in 10.0 mi SW 9.2 mph 25.3 mph N/A   Clear
10:53 AM 77.0 °F - 57.9 °F 52% 29.78 in 10.0 mi SW 15.0 mph 23.0 mph N/A   Scattered Clouds
11:53 AM 77.0 °F - 57.9 °F 52% 29.78 in 10.0 mi WSW 9.2 mph 18.4 mph N/A   Mostly Cloudy
12:53 PM 77.0 °F - 59.0 °F 54% 29.76 in 10.0 mi SSW 8.1 mph - N/A   Overcast
1:53 PM 80.1 °F 80.9 °F 60.1 °F 50% 29.75 in 10.0 mi SSW 11.5 mph 19.6 mph N/A   Scattered Clouds
2:53 PM 80.1 °F 81.1 °F 61.0 °F 52% 29.74 in 10.0 mi SW 11.5 mph - N/A   Mostly Cloudy
3:53 PM 82.0 °F 82.4 °F 60.1 °F 47% 29.73 in 10.0 mi West 13.8 mph 19.6 mph N/A   Clear
4:53 PM 82.9 °F 82.8 °F 59.0 °F 44% 29.72 in 10.0 mi SW 18.4 mph 25.3 mph N/A   Clear
5:53 PM 82.9 °F 83.3 °F 61.0 °F 47% 29.72 in 10.0 mi SW 12.7 mph - N/A   Partly Cloudy
6:53 PM 81.0 °F 81.6 °F 60.1 °F 49% 29.72 in 10.0 mi SW 11.5 mph - N/A   Clear
7:53 PM 80.1 °F 81.1 °F 61.0 °F 52% 29.73 in 10.0 mi WSW 5.8 mph - N/A   Clear
8:53 PM 78.1 °F - 60.1 °F 54% 29.72 in 10.0 mi Calm Calm - N/A   Clear
9:53 PM 73.0 °F - 60.1 °F 64% 29.72 in 10.0 mi South 4.6 mph - N/A   Clear
10:53 PM 66.0 °F - 61.0 °F 84% 29.74 in 10.0 mi Calm Calm - N/A   Clear
11:53 PM 64.9 °F - 60.1 °F 84% 29.73 in 10.0 mi South 3.5 mph - N/A   Clear